Perth, Australia

12:05 PM AWST on December 03, 2016 (GMT +0800)
Perth International

Weather History for YPPH - April, 2014

Change the Weather History Date:

Saturday, April 5, 2014

  Actual Average Record
Temperature  
Mean Temperature 73 °F -  
Max Temperature 88 °F 79 °F 95 °F (2011)
Min Temperature 58 °F 56 °F 46 °F (2006)
Cooling Degree Days 8    
Growing Degree Days 23 (Base 50)    
Moisture  
Dew Point 49 °F    
Average Humidity 47    
Maximum Humidity 83    
Minimum Humidity 11    
Precipitation  
Precipitation 0.00 in - - ()
Sea Level Pressure  
Sea Level Pressure 29.84 in    
Wind  
Wind Speed 6 mph ()    
Max Wind Speed 15 mph    
Max Gust Speed -    
Visibility 11.9 miles    
Events      
Averages and records for this station are not official NWS values.
T = Trace of Precipitation, MM = Missing Value Source: Averaged Metar Reports

Daily Weather History Graph

Daily Weather History Graph

Search for Another Location

Airport or City:

Trip Planner

Search our weather history database for the weather conditions in past years. The results will help you decide how hot, cold, wet, or windy it might be!

Date:

Astronomy

Apr. 05, 2014 Rise Set
Actual Time 6:29 AM AWST 6:07 PM AWST
Civil Twilight 6:05 AM AWST 6:31 PM AWST
Nautical Twilight 5:37 AM AWST 7:00 PM AWST
Astronomical Twilight 5:08 AM AWST 7:28 PM AWST
Moon 11:33 AM AWST (4/5) 10:14 PM AWST (4/5)
Length of Visible Light 12h 26m
Length of Day
11h 37m
Waxing Crescent, 30% of the Moon is Illuminated
Apr 5
Waxing Crescent
Apr 7
First Quarter
Apr 15
Full
Apr 22
Last Quarter
Apr 29
New

Hourly Weather History & Observations

Time (AWST) Temp. Heat Index Dew Point Humidity Pressure Visibility Wind Dir Wind Speed Gust Speed Precip Events Conditions
12:00 AM 68 °F - 49 °F 40% 29.90 in 19 mi WSW 6.9 mph - -   Partly Cloudy
12:00 AM 68.0 °F - 50.0 °F 52% 29.89 in - WSW 6.9 mph - N/A   Clear
12:30 AM 68.0 °F - 51.8 °F 56% 29.89 in - SW 4.6 mph - N/A   Clear
1:00 AM 64.4 °F - 51.8 °F 64% 29.89 in - West 4.6 mph - N/A   Clear
1:30 AM 64.4 °F - 50.0 °F 59% 29.89 in - SW 5.8 mph - N/A   Clear
2:00 AM 63 °F - 51 °F 56% 29.88 in - South 5.8 mph - -  
2:00 AM 62.6 °F - 51.8 °F 68% 29.89 in - South 5.8 mph - N/A   Clear
2:30 AM 60.8 °F - 51.8 °F 72% 29.86 in - Calm Calm - N/A   Clear
3:00 AM 60 °F - 49 °F 59% 29.86 in 19 mi South 4.6 mph - -   Mostly Cloudy
3:00 AM 60.8 °F - 50.0 °F 68% 29.86 in - South 4.6 mph - N/A   Clear
3:30 AM 62.6 °F - 48.2 °F 59% 29.83 in - North 5.8 mph - N/A   Clear
4:00 AM 62.6 °F - 46.4 °F 55% 29.83 in - NNE 8.1 mph - N/A   Clear
4:30 AM 62.6 °F - 46.4 °F 55% 29.83 in - NNE 8.1 mph - N/A   Clear
5:00 AM 63 °F - 46 °F 43% 29.85 in - NNE 5.8 mph - -  
5:00 AM 62.6 °F - 46.4 °F 55% 29.83 in - NNE 5.8 mph - N/A   Clear
5:30 AM 60.8 °F - 51.8 °F 72% 29.86 in - West 5.8 mph - N/A   Clear
6:00 AM 62 °F - 50 °F 56% 29.87 in 19 mi South 6.9 mph - -   Scattered Clouds
6:00 AM 62.6 °F - 50.0 °F 63% 29.86 in 6.2 mi South 6.9 mph - N/A   Mostly Cloudy
6:30 AM 60.8 °F - 50.0 °F 68% 29.86 in - South 5.8 mph - N/A   Clear
7:00 AM 59.0 °F - 50.0 °F 72% 29.86 in 6.2 mi SSE 3.5 mph - N/A   Mostly Cloudy
7:30 AM 60.8 °F - 51.8 °F 72% 29.86 in 6.2 mi Calm Calm - N/A   Mostly Cloudy
8:00 AM 66 °F - 49 °F 44% 29.88 in - East 5.8 mph - -  
8:00 AM 66.2 °F - 50.0 °F 56% 29.89 in - East 5.8 mph - N/A   Clear
8:30 AM 71.6 °F - 44.6 °F 38% 29.86 in - ENE 5.8 mph - N/A   Clear
9:00 AM 75 °F - 40 °F 18% 29.88 in 19 mi ENE 6.9 mph - -   Scattered Clouds
9:00 AM 75.2 °F - 41.0 °F 29% 29.86 in - ENE 6.9 mph - N/A   Clear
9:30 AM 77.0 °F - 37.4 °F 24% 29.86 in - NE 4.6 mph - N/A   Clear
10:00 AM 78.8 °F - 35.6 °F 21% 29.86 in - North 6.9 mph - N/A   Clear
10:30 AM 78.8 °F - 37.4 °F 23% 29.86 in - North 5.8 mph - N/A   Clear
11:00 AM 79 °F - 39 °F 14% 29.85 in - WSW 5.8 mph - -  
11:00 AM 78.8 °F - 39.2 °F 24% 29.83 in - WSW 5.8 mph - N/A   Clear
11:30 AM 82.4 °F - 41.0 °F 23% 29.83 in - WSW 3.5 mph - N/A   Clear
12:00 PM 83 °F - 37 °F 11% 29.81 in 19 mi SW 4.6 mph - -   Scattered Clouds
12:00 PM 84.2 °F - 37.4 °F 19% 29.80 in - SW 4.6 mph - N/A   Clear
12:30 PM 84.2 °F - 39.2 °F 20% 29.80 in - South 1.2 mph - N/A   Clear
1:00 PM 86.0 °F - 37.4 °F 18% 29.77 in - South 4.6 mph - N/A   Clear
1:30 PM 87.8 °F - 39.2 °F 18% 29.74 in - SE 6.9 mph - N/A   Clear
2:00 PM 85 °F - 41 °F 12% 29.76 in - West 15.0 mph - -  
2:00 PM 86.0 °F - 41.0 °F 20% 29.74 in - West 15.0 mph - N/A   Clear
2:30 PM 82.4 °F - 48.2 °F 30% 29.74 in - West 15.0 mph - N/A   Clear
3:00 PM 81 °F - 52 °F 26% 29.76 in 19 mi WSW 15.0 mph - -   Scattered Clouds
3:00 PM 80.6 °F - 51.8 °F 37% 29.74 in 6.2 mi WSW 15.0 mph - N/A   Mostly Cloudy
3:30 PM 80.6 °F 80.3 °F 53.6 °F 39% 29.77 in 6.2 mi West 13.8 mph - N/A   Mostly Cloudy
4:00 PM 78.8 °F - 50.0 °F 36% 29.77 in 6.2 mi SW 15.0 mph - N/A   Scattered Clouds
4:30 PM 78.8 °F - 48.2 °F 34% 29.80 in 6.2 mi SSW 10.4 mph - N/A   Scattered Clouds
5:00 PM 77 °F - 48 °F 25% 29.81 in - SSW 13.8 mph - -  
5:00 PM 77.0 °F - 48.2 °F 36% 29.80 in - SSW 13.8 mph - N/A   Clear
5:30 PM 75.2 °F - 48.2 °F 38% 29.80 in - SW 10.4 mph - N/A   Clear
6:00 PM 74 °F - 53 °F 36% 29.83 in 19 mi SW 9.2 mph - -   Partly Cloudy
6:00 PM 73.4 °F - 51.8 °F 47% 29.80 in - SW 9.2 mph - N/A   Clear
6:30 PM 73.4 °F - 53.6 °F 50% 29.83 in - SW 9.2 mph - N/A   Clear
7:00 PM 71.6 °F - 55.4 °F 57% 29.83 in - SW 6.9 mph - N/A   Clear
7:30 PM 69.8 °F - 55.4 °F 60% 29.83 in - SW 6.9 mph - N/A   Clear
8:00 PM 68 °F - 56 °F 57% 29.86 in - South 3.5 mph - -  
8:00 PM 68.0 °F - 57.2 °F 68% 29.86 in 6.2 mi South 3.5 mph - N/A   Partly Cloudy
8:30 PM 68.0 °F - 55.4 °F 64% 29.86 in 6.2 mi South 5.8 mph - N/A   Partly Cloudy
9:00 PM 65 °F - 54 °F 59% 29.87 in 19 mi WSW 5.8 mph - -   Scattered Clouds
9:00 PM 64.4 °F - 53.6 °F 68% 29.86 in 6.2 mi WSW 5.8 mph - N/A   Partly Cloudy
9:30 PM 66.2 °F - 57.2 °F 73% 29.86 in - WSW 6.9 mph - N/A   Clear
10:00 PM 66.2 °F - 57.2 °F 73% 29.86 in - SSW 6.9 mph - N/A   Clear
10:30 PM 66.2 °F - 59.0 °F 78% 29.86 in - SSW 6.9 mph - N/A   Clear
11:00 PM 63 °F - 58 °F 77% 29.86 in - SSW 5.8 mph - -  
11:00 PM 62.6 °F - 57.2 °F 82% 29.86 in - SSW 5.8 mph - N/A   Clear
11:30 PM 66.2 °F - 60.8 °F 83% 29.83 in - South 6.9 mph - N/A   Clear